Regional Weather Roundup
Issued by NWS

Home | Current Version | Previous Version | Text Only | Print | Product List | Glossary On
Versions: 1 2 3 4 5 6 7 8 9 10 11 12 13 14 15 16 17 18 19 20 21 22 23 24 25 26 27 28 29 30 31 32 33 34 35 36 37 38 39 40 41 42 43 44 45 46 47 48 49 50
235
ASUS43 KTOP 241559
RWRKS

WEATHER ROUNDUP FOR KANSAS
NATIONAL WEATHER SERVICE GOODLAND KS
1000 AM CST FRI NOV 24 2017

NOTE:  "FAIR" INDICATES FEW OR NO CLOUDS BELOW 12,000 FEET WITH NO
SIGNIFICANT WEATHER AND/OR OBSTRUCTIONS TO VISIBILITY.

KSZ001>006-013>018-027>032-041>047-241700-
NORTHWEST KANSAS

CITY           SKY/WX    TMP DP  RH WIND       PRES   REMARKS
GOODLAND       SUNNY     62  31  31 W9        29.77R
HAYS           SUNNY     60  40  47 SW5       29.70F
HILL CITY      SUNNY     63  40  42 SW3       29.69F
RUSSELL        MOSUNNY   58  42  55 SW9       29.68F
$$

KSZ061>065-074>080-084>089-241700-
SOUTHWEST KANSAS

CITY           SKY/WX    TMP DP  RH WIND       PRES   REMARKS
DODGE CITY     SUNNY     52  34  50 SW6       29.74S
GARDEN CITY    SUNNY     54  34  46 W10       29.74S
GREAT BEND     CLOUDY    57  39  51 SW7       29.73F
LIBERAL        MOSUNNY   52  35  52 W7        29.78S
$$

KSZ066>073-081>083-090>101-241700-
SOUTHEAST KANSAS

CITY           SKY/WX    TMP DP  RH WIND       PRES   REMARKS
CHANUTE        SUNNY     57  35  43 S16       29.78F
COFFEYVILLE    SUNNY     58  36  43 S15       29.80F
HUTCHINSON     MOSUNNY   56  38  50 SW12      29.72F
MEDICINE LODGE   N/A     56  39  53 SE3       29.74F
NEWTON         CLOUDY    58  37  45 SW15      29.73F
PARSONS        SUNNY     57  36  45 S10G18    29.80F
WICHITA INTL   MOSUNNY   55  39  54 S10       29.74F
WICHITA JABRA  CLOUDY    58  37  45 SW12      29.74F
WICHITA MCCONL MOSUNNY   57  36  46 SW10      29.74F
WINFIELD       MOSUNNY   62  39  42 S10       29.77F
$$

KSZ007>012-019>026-033>040-048>060-102>105-241700-
NORTHEAST KANSAS

CITY           SKY/WX    TMP DP  RH WIND       PRES   REMARKS
CONCORDIA      CLOUDY    57  40  52 SW16      29.64S
EMPORIA        CLOUDY    59  37  44 S15       29.71F
LAWRENCE       SUNNY     61  37  41 S14       29.68F
MANHATTAN      SUNNY     61  38  42 SW17G24   29.66F
OLATHE IND     SUNNY     60  37  42 S18       29.69F
OLATHE EXE     SUNNY     57  36  45 S12G23    29.69F
SALINA         CLOUDY    58  41  53 SW9       29.69S
TOPEKA BILLARD SUNNY     61  38  42 SW13G18   29.66F
TOPEKA FORBES  SUNNY     59  38  45 S20       29.66F
$$




USA.gov is the U.S. government's official web portal to all federal, state and local government web resources and services.